Zurück zum Katalog

FENGYUN 1C DEB

AktivSSO
NORAD 37081·DEBRIS·🇨🇳 China

Gestartet May 10, 1999 von Taiyuan Satellite Launch Center

Loading…

Nächste Überflüge (nächste 24 Stunden)

TLE

AktuellSource: Space-Track

Epoche: Sep 13, 2026, 16:30 UTC

1 37081U 99025EFR 26256.68762703  .00010273  00000-0  33879-2 0  9999
2 37081  98.6806  48.8913 0246302 277.1842  80.1396 14.22492313624739

Verfolge FENGYUN 1C DEB in Echtzeit mit AllMySat

Download on the App Store